This is the latest recevied weather packets stored in our database for station/object IK2CHZ-3. If no packets are shown the sender has not sent any weather packets the latest 10 day(s).
| Time | Temp. | Humidity | Pressure | Rain* | Wind** | Luminosity | Snow |
|---|---|---|---|---|---|---|---|
| 1777746663 | 23.33° C | 31% | 1020 hPa | 0 mm | - | - | - |
| 1777746002 | 23.33° C | 29% | 1020 hPa | 0 mm | - | - | - |
| 1777745342 | 23.33° C | 29% | 1019.9 hPa | 0 mm | - | - | - |
| 1777744684 | 23.89° C | 29% | 1019.9 hPa | 0 mm | - | - | - |
| 1777744024 | 23.89° C | 29% | 1019.8 hPa | 0 mm | - | - | - |
| 1777743363 | 24.44° C | 28% | 1019.9 hPa | 0 mm | - | - | - |
| 1777742703 | 24.44° C | 26% | 1019.9 hPa | 0 mm | - | - | - |
| 1777742042 | 24.44° C | 27% | 1020 hPa | 0 mm | - | - | - |
| 1777741383 | 24.44° C | 26% | 1019.9 hPa | 0 mm | - | - | - |
| 1777740722 | 24.44° C | 26% | 1020.1 hPa | 0 mm | - | - | - |
| 1777740063 | 25.56° C | 26% | 1020.1 hPa | 0 mm | - | - | - |
| 1777739403 | 25° C | 25% | 1020.2 hPa | 0 mm | - | - | - |
| 1777738744 | 24.44° C | 27% | 1020.3 hPa | 0 mm | - | - | - |
| 1777738083 | 24.44° C | 27% | 1020.5 hPa | 0 mm | - | - | - |
| 1777737423 | 25° C | 26% | 1020.6 hPa | 0 mm | - | - | - |
| 1777736762 | 24.44° C | 27% | 1020.8 hPa | 0 mm | - | - | - |
| 1777736103 | 24.44° C | 27% | 1020.8 hPa | 0 mm | - | - | - |
| 1777735444 | 25° C | 26% | 1020.9 hPa | 0 mm | - | - | - |
| 1777734783 | 24.44° C | 27% | 1021 hPa | 0 mm | - | - | - |
| 1777734124 | 24.44° C | 27% | 1021.1 hPa | 0 mm | - | - | - |
| 1777733463 | 24.44° C | 27% | 1021.2 hPa | 0 mm | - | - | - |
| 1777732802 | 24.44° C | 28% | 1021.4 hPa | 0 mm | - | - | - |
| 1777732143 | 23.89° C | 28% | 1021.5 hPa | 0 mm | - | - | - |
| 1777731484 | 23.89° C | 27% | 1021.7 hPa | 0 mm | - | - | - |
| 1777730164 | 24.44° C | 27% | 1021.9 hPa | 0 mm | - | - | - |
* Rain latest hour (hover to see other rain measurements)
** Current wind speed in m/s (hover to see current wind gust speed)